Weather History for KMQS - November, 2014

Change the Weather History Date:

Friday, November 7, 2014

  Actual Average (KLNS) Record (KLNS)
Temperature  
Mean Temperature 40 °F -  
Max Temperature 48 °F 54 °F 69 °F (1980)
Min Temperature 32 °F 36 °F 24 °F (1982)
Degree Days  
Heating Degree Days 25    
Moisture  
Dew Point 33 °F    
Average Humidity 70    
Maximum Humidity 100    
Minimum Humidity 43    
Precipitation  
Precipitation 0.00 in - - ()
Sea Level Pressure  
Sea Level Pressure 29.80 in    
Wind  
Wind Speed 12 mph (NW)    
Max Wind Speed 24 mph    
Max Gust Speed 33 mph    
Visibility 10 miles    
Events Rain    
Averages and records for this station are not official NWS values.
T = Trace of Precipitation, MM = Missing Value Source: NWS Daily Summary

Daily Weather History Graph

Daily Weather History Graph

Search for Another Location

Airport or City:

Trip Planner

Search our weather history database for the weather conditions in past years. The results will help you decide how hot, cold, wet, or windy it might be!

Date:

Astronomy

Nov. 07, 2014 Rise Set
Actual Time 6:39 AM EST 4:54 PM EST
Civil Twilight 6:10 AM EST 5:22 PM EST
Nautical Twilight 5:38 AM EST 5:55 PM EST
Astronomical Twilight 5:06 AM EST 6:26 PM EST
Moon 5:45 PM EST (11/7) 7:12 AM EST (11/7)
Length of Visible Light 11h 12m
Length of Day
10h 15m
Full, 99% of the Moon is Illuminated
Nov 7
Full
Nov 14
Last Quarter
Nov 22
New
Nov 29
First Quarter
Dec 6
Full

Hourly Weather History & Observations

Time (EST) Temp. Windchill Dew Point Humidity Pressure Visibility Wind Dir Wind Speed Gust Speed Precip Events Conditions
12:15 AM 46.4 °F 42.9 °F 46.4 °F 100% 29.65 in 4.0 mi WNW 6.9 mph - N/A   Mostly Cloudy
12:35 AM 48.2 °F - 46.4 °F 93% 29.65 in 4.0 mi WNW 8.1 mph - N/A   Overcast
12:55 AM 46.4 °F 41.1 °F 46.4 °F 100% 29.66 in 5.0 mi NW 11.5 mph - N/A   Overcast
1:15 AM 46.4 °F 40.7 °F 44.6 °F 93% 29.66 in 8.0 mi WNW 12.7 mph - N/A   Overcast
1:35 AM 46.4 °F 41.9 °F 44.6 °F 93% 29.65 in 8.0 mi WNW 9.2 mph - N/A   Overcast
1:55 AM 46.4 °F 41.1 °F 44.6 °F 93% 29.65 in 9.0 mi NW 11.5 mph - N/A   Mostly Cloudy
2:15 AM 46.4 °F 41.5 °F 44.6 °F 93% 29.66 in 9.0 mi NW 10.4 mph - N/A   Mostly Cloudy
2:35 AM 46.4 °F 41.5 °F 42.8 °F 87% 29.66 in 10.0 mi NW 10.4 mph - N/A   Mostly Cloudy
2:55 AM 44.6 °F 39.2 °F 41.0 °F 87% 29.66 in 10.0 mi NW 10.4 mph - N/A   Mostly Cloudy
3:15 AM 46.4 °F 41.9 °F 42.8 °F 87% 29.66 in 10.0 mi NW 9.2 mph - N/A   Mostly Cloudy
3:35 AM 46.4 °F 41.9 °F 42.8 °F 87% 29.66 in 10.0 mi WNW 9.2 mph - N/A   Overcast
3:55 AM 46.4 °F 40.7 °F 44.6 °F 93% 29.67 in 10.0 mi NW 12.7 mph 17.3 mph N/A   Overcast
4:15 AM 46.4 °F 40.7 °F 41.0 °F 81% 29.67 in 10.0 mi NW 12.7 mph 23.0 mph N/A   Overcast
4:35 AM 46.4 °F 40.7 °F 39.2 °F 76% 29.68 in 10.0 mi NNW 12.7 mph 23.0 mph N/A   Overcast
4:55 AM 44.6 °F 39.7 °F 39.2 °F 81% 29.69 in 10.0 mi NNW 9.2 mph - N/A   Overcast
5:15 AM 42.8 °F 37.5 °F 37.4 °F 81% 29.69 in 10.0 mi NW 9.2 mph - N/A   Partly Cloudy
5:35 AM 42.8 °F 37.5 °F 37.4 °F 81% 29.70 in 10.0 mi NW 9.2 mph - N/A   Clear
5:55 AM 41.0 °F 34.7 °F 37.4 °F 87% 29.69 in 10.0 mi WNW 10.4 mph - N/A   Clear
6:15 AM 41.0 °F 34.7 °F 35.6 °F 81% 29.71 in 10.0 mi WNW 10.4 mph - N/A   Clear
6:35 AM 41.0 °F 35.8 °F 35.6 °F 81% 29.71 in 10.0 mi WNW 8.1 mph - N/A   Clear
6:55 AM 41.0 °F 34.7 °F 35.6 °F 81% 29.72 in 10.0 mi NW 10.4 mph - N/A   Clear
7:15 AM 41.0 °F 35.2 °F 35.6 °F 81% 29.72 in 10.0 mi NW 9.2 mph - N/A   Clear
7:35 AM 42.8 °F 38.0 °F 37.4 °F 81% 29.73 in 10.0 mi WNW 8.1 mph - N/A   Clear
7:55 AM 44.6 °F 39.7 °F 37.4 °F 76% 29.73 in 10.0 mi WNW 9.2 mph - N/A   Partly Cloudy
8:15 AM 44.6 °F 38.8 °F 37.4 °F 76% 29.74 in 10.0 mi WNW 11.5 mph - N/A   Mostly Cloudy
8:35 AM 44.6 °F 38.8 °F 37.4 °F 76% 29.74 in 10.0 mi NW 11.5 mph - N/A   Overcast
8:55 AM 44.6 °F 40.2 °F 37.4 °F 76% 29.74 in 10.0 mi WNW 8.1 mph - N/A   Overcast
9:15 AM 44.6 °F 39.7 °F 39.2 °F 81% 29.74 in 10.0 mi WNW 9.2 mph - N/A   Overcast
9:35 AM 44.6 °F 39.7 °F 39.2 °F 81% 29.75 in 5.0 mi NW 9.2 mph - N/A   Overcast
9:55 AM 42.8 °F 38.0 °F 39.2 °F 87% 29.75 in 2.5 mi NW 8.1 mph - N/A Rain Light Rain
10:15 AM 46.4 °F 40.4 °F 41.0 °F 81% 29.75 in 10.0 mi NW 13.8 mph 18.4 mph N/A   Scattered Clouds
10:35 AM 48.2 °F - 41.0 °F 76% 29.75 in 10.0 mi NW 13.8 mph 21.9 mph N/A   Partly Cloudy
10:55 AM 46.4 °F 40.1 °F 39.2 °F 76% 29.76 in 10.0 mi NW 15.0 mph 20.7 mph N/A Rain Light Rain
11:15 AM 46.4 °F 40.4 °F 41.0 °F 81% 29.76 in 10.0 mi NW 13.8 mph - N/A   Overcast
11:35 AM 46.4 °F 39.5 °F 39.2 °F 76% 29.76 in 10.0 mi WNW 17.3 mph 27.6 mph N/A   Mostly Cloudy
11:55 AM 46.4 °F 40.4 °F 37.4 °F 71% 29.76 in 10.0 mi NW 13.8 mph 25.3 mph N/A Rain Light Rain
12:15 PM 48.2 °F - 35.6 °F 62% 29.76 in 10.0 mi NW 21.9 mph 28.8 mph N/A   Scattered Clouds
12:35 PM 46.4 °F 38.7 °F 32.0 °F 57% 29.76 in 10.0 mi NW 20.7 mph 27.6 mph N/A   Mostly Cloudy
12:55 PM 46.4 °F 39.0 °F 32.0 °F 57% 29.77 in 10.0 mi NW 19.6 mph 28.8 mph N/A Rain Light Rain
1:15 PM 46.4 °F 38.7 °F 32.0 °F 57% 29.78 in 10.0 mi NW 20.7 mph 29.9 mph N/A   Overcast
1:35 PM 48.2 °F - 32.0 °F 54% 29.78 in 10.0 mi NW 24.2 mph 32.2 mph N/A   Mostly Cloudy
1:55 PM 46.4 °F 38.1 °F 28.4 °F 50% 29.80 in 10.0 mi NNW 24.2 mph 33.4 mph N/A   Mostly Cloudy
2:15 PM 46.4 °F 39.2 °F 28.4 °F 50% 29.80 in 10.0 mi NW 18.4 mph 33.4 mph N/A   Mostly Cloudy
2:35 PM 46.4 °F 38.1 °F 28.4 °F 50% 29.81 in 10.0 mi NW 24.2 mph 28.8 mph N/A   Mostly Cloudy
2:55 PM 48.2 °F - 28.4 °F 46% 29.81 in 10.0 mi NW 17.3 mph 23.0 mph N/A   Mostly Cloudy
3:15 PM 46.4 °F 39.2 °F 26.6 °F 46% 29.83 in 10.0 mi NW 18.4 mph 28.8 mph N/A   Partly Cloudy
3:35 PM 46.4 °F 38.7 °F 26.6 °F 46% 29.83 in 10.0 mi WNW 20.7 mph 28.8 mph N/A   Partly Cloudy
3:55 PM 46.4 °F 39.5 °F 24.8 °F 43% 29.84 in 10.0 mi NW 17.3 mph 25.3 mph N/A   Scattered Clouds
4:15 PM 44.6 °F 37.2 °F 24.8 °F 46% 29.85 in 10.0 mi NW 17.3 mph 20.7 mph N/A   Scattered Clouds
4:35 PM 44.6 °F 38.1 °F 24.8 °F 46% 29.86 in 10.0 mi NW 13.8 mph 20.7 mph N/A   Scattered Clouds
4:55 PM 42.8 °F 36.6 °F 24.8 °F 49% 29.87 in 10.0 mi NW 11.5 mph - N/A   Clear
5:15 PM 42.8 °F 34.3 °F 24.8 °F 49% 29.88 in 10.0 mi NW 19.6 mph 26.5 mph N/A   Clear
5:35 PM 42.8 °F 34.8 °F 23.0 °F 46% 29.89 in 10.0 mi NW 17.3 mph 24.2 mph N/A   Clear
5:55 PM 41.0 °F 32.5 °F 24.8 °F 53% 29.90 in 10.0 mi NW 17.3 mph 26.5 mph N/A   Clear
6:15 PM 41.0 °F 33.9 °F 24.8 °F 53% 29.92 in 10.0 mi NW 12.7 mph 18.4 mph N/A   Clear
6:35 PM 41.0 °F 32.8 °F 24.8 °F 53% 29.93 in 10.0 mi NW 16.1 mph 21.9 mph N/A   Clear
6:55 PM 41.0 °F 33.1 °F 24.8 °F 53% 29.93 in 10.0 mi NW 15.0 mph - N/A   Clear
7:15 PM 41.0 °F 34.3 °F 24.8 °F 53% 29.94 in 10.0 mi NW 11.5 mph - N/A   Clear
7:35 PM 39.2 °F 31.6 °F 24.8 °F 56% 29.94 in 10.0 mi NW 12.7 mph - N/A   Clear
7:55 PM 39.2 °F 33.0 °F 24.8 °F 56% 29.96 in 10.0 mi NW 9.2 mph 17.3 mph N/A   Clear
8:15 PM 39.2 °F 32.0 °F 24.8 °F 56% 29.96 in 10.0 mi NW 11.5 mph - N/A   Clear
8:35 PM 39.2 °F 33.0 °F 24.8 °F 56% 29.97 in 10.0 mi NW 9.2 mph - N/A   Clear
8:55 PM 39.2 °F 33.6 °F 24.8 °F 56% 29.97 in 10.0 mi NNW 8.1 mph - N/A   Clear
9:15 PM 37.4 °F 32.1 °F 26.6 °F 65% 29.98 in 10.0 mi NW 6.9 mph - N/A   Clear
9:35 PM 37.4 °F 33.8 °F 26.6 °F 65% 29.98 in 10.0 mi NW 4.6 mph - N/A   Clear
9:55 PM 37.4 °F 30.8 °F 26.6 °F 65% 29.98 in 10.0 mi NW 9.2 mph - N/A   Clear
10:15 PM 37.4 °F 30.8 °F 24.8 °F 60% 29.98 in 10.0 mi NW 9.2 mph - N/A   Clear
10:35 PM 37.4 °F 30.8 °F 24.8 °F 60% 29.99 in 10.0 mi WNW 9.2 mph - N/A   Clear
10:55 PM 33.8 °F 25.3 °F 26.6 °F 75% 29.98 in 10.0 mi NW 11.5 mph - N/A   Clear
11:15 PM 35.6 °F 31.7 °F 26.6 °F 70% 30.00 in 10.0 mi West 4.6 mph - N/A   Clear
11:35 PM 32.0 °F 24.8 °F 26.6 °F 80% 30.01 in 10.0 mi WNW 8.1 mph - N/A   Clear
11:55 PM 35.6 °F 28.6 °F 26.6 °F 70% 30.01 in 10.0 mi WNW 9.2 mph - N/A   Clear